Tracking 29892 objects as of 21-Nov-2024
HD Live streaming from Space Station
objects crossing your sky now

ONEWEB-0184

Track ONEWEB-0184 now!
10-day predictions
ONEWEB-0184 is classified as:


NORAD ID: 48211
Int'l Code: 2021-031B
Perigee: 1,211.8 km
Apogee: 1,214.0 km
Inclination: 87.9 °
Period: 109.5 minutes
Semi major axis: 7583 km
RCS: Unknown
Launch date: April 25, 2021
Source: United Kingdom (UK)
Launch site: VOSTOCHNY COSMODROME (VOSTO)
Your satellite tracking list
Your tracking list is empty




NASA's NSSDC Master Catalog

Two Line Element Set (TLE):
1 48211U 21031B   24325.52842357  .00000279  00000-0  71915-3 0  9999
2 48211  87.9027  43.7510 0001462  69.1611 290.9675 13.14503019172924
Source of the keplerian elements: AFSPC